{"data":{"norad_id":62830,"intl_designator":"2025-019B","name":"STARLINK-11480 [DTC]","alt_names":[],"object_type":"PAYLOAD","status":"ACTIVE","operator":null,"country":"US","launch_date":"2025-01-27","launch_site_code":"AFETR","launch_vehicle":null,"mission":null,"orbit_class":"UNKNOWN","rcs_meters":null,"size_class":null,"mass_kg":null,"dimensions":null,"purposes":["comms"],"wikipedia_slug":null,"has_3d_model":false,"image_url":null,"decayed_at":null,"tle_current":{"epoch":"2026-05-25T04:46:51.699936Z","epoch_age_seconds":53945,"freshness":"FRESH","line1":"1 62830U 25019B   26145.19920949  .00164844  00000+0  12574-2 0  9994","line2":"2 62830  43.0016 204.8179 0001630 268.4406  91.6274 15.70942940 75918","mean_motion":15.7094294,"eccentricity":0.000163,"inclination_deg":43.0016,"raan_deg":204.8179,"arg_perigee_deg":268.4406,"mean_anomaly_deg":91.6274,"bstar":0.0012574,"rev_number":7591,"period_min":91.66469152597,"perigee_km":355.10315877898,"apogee_km":357.29855291999,"semimajor_km":6734.3378558495,"source":"CELESTRAK","updated_at":"2026-05-25T13:38:19.777786Z"}}}